Edgartown, MA

9:59 AM EST on December 05, 2016 (GMT -0500)
Martha's Vineyard

Weather History for KMVY - October, 2012

Change the Weather History Date:

Saturday, October 6, 2012

  Actual Average Record
Temperature  
Mean Temperature 65 °F -  
Max Temperature 75 °F 65 °F 80 °F (1967)
Min Temperature 55 °F 47 °F 26 °F (2004)
Growing Degree Days 15 (Base 50)    
Moisture  
Dew Point 59 °F    
Average Humidity 83    
Maximum Humidity 96    
Minimum Humidity 56    
Precipitation  
Precipitation 0.01 in - - ()
Sea Level Pressure  
Sea Level Pressure 29.89 in    
Wind  
Wind Speed 6 mph (SW)    
Max Wind Speed 21 mph    
Max Gust Speed 30 mph    
Visibility 5 miles    
Events Fog , Rain    
Averages and records for this station are not official NWS values.
T = Trace of Precipitation, MM = Missing Value Source: NWS Daily Summary

Daily Weather History Graph

Daily Weather History Graph

Search for Another Location

Airport or City:

Trip Planner

Search our weather history database for the weather conditions in past years. The results will help you decide how hot, cold, wet, or windy it might be!

Date:

Astronomy

Oct. 06, 2012 Rise Set
Actual Time 6:44 AM EDT 6:15 PM EDT
Civil Twilight 6:17 AM EDT 6:42 PM EDT
Nautical Twilight 5:45 AM EDT 7:14 PM EDT
Astronomical Twilight 5:13 AM EDT 7:46 PM EDT
Moon 10:24 PM EDT (10/6) 12:40 PM EDT (10/6)
Length of Visible Light 12h 25m
Length of Day
11h 30m
Waning Gibbous, 65% of the Moon is Illuminated
Oct 6
Waning Gibbous
Oct 8
Last Quarter
Oct 15
New
Oct 21
First Quarter
Oct 29
Full

Hourly Weather History & Observations

Time (EDT) Temp. Dew Point Humidity Pressure Visibility Wind Dir Wind Speed Gust Speed Precip Events Conditions
12:16 AM 62.6 °F 60.8 °F 94% 29.93 in 1.8 mi SSW 4.6 mph - N/A   Clear
12:20 AM 62.6 °F 60.8 °F 94% 29.93 in 1.0 mi SW 4.6 mph - N/A   Mist
12:31 AM 64.4 °F 60.8 °F 88% 29.94 in 2.0 mi SW 3.5 mph - N/A   Partly Cloudy
12:38 AM 64.4 °F 60.8 °F 88% 29.93 in 5.0 mi SSW 3.5 mph - N/A   Partly Cloudy
12:41 AM 64.4 °F 60.8 °F 88% 29.93 in 2.0 mi SSW 3.5 mph - N/A   Partly Cloudy
12:43 AM 64.4 °F 60.8 °F 88% 29.93 in 1.0 mi Calm Calm - N/A   Mist
12:50 AM 62.6 °F 59.0 °F 88% 29.93 in 0.5 mi SW 3.5 mph - N/A Fog Fog
12:53 AM 62.1 °F 59.0 °F 90% 29.93 in 0.5 mi SW 4.6 mph - N/A Fog Fog
1:03 AM 62.6 °F 60.8 °F 94% 29.93 in 1.0 mi SW 3.5 mph - N/A   Mist
1:15 AM 60.8 °F 57.2 °F 88% 29.93 in 0.5 mi WSW 3.5 mph - N/A Fog Fog
1:22 AM 60.8 °F 57.2 °F 88% 29.94 in 0.5 mi WSW 3.5 mph - N/A Fog Fog
1:32 AM 60.8 °F 57.2 °F 88% 29.94 in 0.5 mi WSW 3.5 mph - N/A Fog Fog
1:53 AM 57.0 °F 55.9 °F 96% 29.93 in 0.2 mi SW 3.5 mph - N/A Fog Fog
2:12 AM 59.0 °F 55.4 °F 88% 29.92 in 0.5 mi Calm Calm - N/A Fog Fog
2:19 AM 60.8 °F 57.2 °F 88% 29.92 in 0.2 mi SW 3.5 mph - N/A Fog Fog
2:34 AM 60.8 °F 57.2 °F 88% 29.91 in 1.0 mi Calm Calm - N/A   Mist
2:37 AM 59.0 °F 55.4 °F 88% 29.91 in 4.0 mi Calm Calm - N/A   Mostly Cloudy
2:49 AM 59.0 °F 55.4 °F 88% 29.91 in 0.8 mi Calm Calm - N/A   Mist
2:53 AM 57.0 °F 55.0 °F 93% 29.91 in 0.5 mi Calm Calm - N/A Fog Fog
3:00 AM 57.2 °F 55.4 °F 94% 29.91 in 0.2 mi Calm Calm - N/A Fog Fog
3:46 AM 57.2 °F 53.6 °F 88% 29.90 in 0.5 mi SSE 3.5 mph - 0.01 in Fog Fog
3:53 AM 55.0 °F 53.1 °F 93% 29.90 in 1.0 mi Calm Calm - 0.01 in   Mist
3:56 AM 55.4 °F 53.6 °F 94% 29.90 in 0.8 mi Calm Calm - N/A   Mist
4:06 AM 57.2 °F 55.4 °F 94% 29.90 in 0.5 mi Calm Calm - N/A Fog Fog
4:38 AM 57.2 °F 55.4 °F 94% 29.90 in 0.5 mi South 4.6 mph - N/A Fog Fog
4:53 AM 60.1 °F 57.0 °F 90% 29.91 in 0.2 mi SSW 4.6 mph - N/A Fog Fog
5:04 AM 60.8 °F 57.2 °F 88% 29.91 in 0.5 mi SSW 5.8 mph - N/A Fog Fog
5:18 AM 62.6 °F 59.0 °F 88% 29.91 in 3.0 mi SSW 6.9 mph - N/A   Scattered Clouds
5:53 AM 64.9 °F 62.1 °F 90% 29.90 in 9.0 mi SSW 5.8 mph - N/A   Clear
6:53 AM 66.0 °F 63.0 °F 90% 29.89 in 10.0 mi SSW 10.4 mph - N/A   Clear
7:53 AM 68.0 °F 64.0 °F 87% 29.89 in 10.0 mi SSW 11.5 mph - N/A   Clear
8:53 AM 71.1 °F 64.9 °F 81% 29.89 in 10.0 mi SSW 11.5 mph - N/A   Clear
9:53 AM 72.0 °F 64.9 °F 78% 29.88 in 10.0 mi SW 15.0 mph 20.7 mph N/A   Clear
10:53 AM 73.9 °F 64.9 °F 73% 29.88 in 10.0 mi SW 16.1 mph 23.0 mph N/A   Clear
11:53 AM 75.0 °F 64.9 °F 71% 29.86 in 10.0 mi SSW 19.6 mph 25.3 mph N/A   Clear
12:53 PM 75.0 °F 64.0 °F 69% 29.84 in 10.0 mi SSW 20.7 mph 29.9 mph N/A   Clear
1:53 PM 75.0 °F 64.9 °F 71% 29.82 in 10.0 mi SSW 20.7 mph 27.6 mph N/A   Clear
2:53 PM 73.9 °F 64.9 °F 73% 29.80 in 10.0 mi SSW 17.3 mph 27.6 mph N/A   Clear
3:53 PM 73.0 °F 64.9 °F 76% 29.79 in 10.0 mi SSW 18.4 mph 25.3 mph N/A   Clear
4:53 PM 73.0 °F 64.9 °F 76% 29.78 in 10.0 mi SSW 16.1 mph 26.5 mph N/A   Clear
5:53 PM 70.0 °F 64.9 °F 84% 29.80 in 10.0 mi SSW 13.8 mph 25.3 mph N/A   Clear
7:53 PM 71.1 °F 64.9 °F 81% 29.82 in 10.0 mi SW 15.0 mph 23.0 mph 0.00 in Rain Light Rain
8:29 PM 71.6 °F 64.4 °F 78% 29.83 in 10.0 mi SW 10.4 mph - 0.00 in   Overcast
8:53 PM 70.0 °F 63.0 °F 78% 29.84 in 10.0 mi NW 12.7 mph 23.0 mph 0.00 in   Overcast
9:02 PM 66.2 °F 60.8 °F 83% 29.85 in 10.0 mi NW 10.4 mph - 0.00 in Rain Light Rain
9:53 PM 64.0 °F 52.0 °F 65% 29.88 in 10.0 mi NNW 11.5 mph - 0.00 in   Overcast
10:24 PM 62.6 °F 50.0 °F 63% 29.89 in 10.0 mi NNW 17.3 mph 24.2 mph N/A   Overcast
10:32 PM 62.6 °F 50.0 °F 63% 29.89 in 10.0 mi NNW 13.8 mph 23.0 mph N/A   Overcast
10:46 PM 62.6 °F 48.2 °F 59% 29.90 in 10.0 mi NW 17.3 mph 21.9 mph N/A   Overcast
10:53 PM 63.0 °F 48.9 °F 60% 29.90 in 10.0 mi NW 11.5 mph 21.9 mph N/A   Overcast
11:53 PM 61.0 °F 45.0 °F 56% 29.93 in 10.0 mi NW 18.4 mph 25.3 mph N/A   Overcast